Showing default

BEIDOU 3 G3, 45807

Orbit data source: Space-Track

BEIDOU 3 G3, 45807 is a payload satellite owned by CNSA (CN) in GEO that was launched on Tue, 23 Jun 2020 UTC via a CHANG ZHENG 3B launch vehicle from the Xichang Space Center, China (XSC). Payload-class satellites include a variety of spacecraft equipped with specific instruments for various scientific and technological missions. These include communications satellites like Starlink; space stations such as the ISS; scientific satellites like the Hubble; Earth observation satellites from companies like Planet Labs, Umbra, and HawkEye 360; GPS; miniature CubeSats for education and research; and military/defense satellites.

Not visible in the next 10 days
Identifier
45807, 2020-040A
Orbit
GEO
Country
Flag of CNCN / PRC
Related business
Manufacturer
CAST
Mission
Operational Defense Navigation
Bus & Motor
DFH-3B, FY-25
Mass
~3,060 kg wet, 1,700 kg dry
Launch date (UTC)
2020-06-23 (6 years ago)
Launch vehicle
CHANG ZHENG 3B
Launch site
Xichang Space Center, China (XSC)
Object type
Payload
Rocket body
Debris
Shape & HBR
Box + 2 Pan, Unknown HBR
Radar Cross Section
13.998 m², Large (>1 m²)

Expand to show TLE details & history
Last TLE update: 2 days ago

TLE from 2 days ago
0 BEIDOU 3 G3
1 45807U 20040A   26172.05961119 -.00000357  00000-0  00000+0 0  9995
2 45807   2.4578  67.5071 0002606 323.9742   9.6886  1.00277648 22109
Epoch: 2026-06-21T01:25Z
TLE epoch observation values (Epoch: 2026-06-21T01:25:50.406Z)
Latitude
-1.07957°
Longitude
110.48321°
Altitude
35,773.775 km
Speed
3.076 km/s
True Right ascension
02h 44m 50s
True Declination
-1° 04' 43"
Sunlit
Object was in daylight at epoch
Visualization orbit readout
Latitude
Unknown
Longitude
Unknown
Altitude
Unknown
Speed
Unknown
Apparent Right ascension
Unknown
Apparent Declination
Unknown
Sunlit
N/A
Visualization observer readout
Local Sidereal Time
02:13:19
Azimuth
Unknown
Elevation
Unknown
Doppler factor
Unknown
Orbital elements
Apogee altitude
35,797.007 km
Perigee altitude
35,775.031 km
Semi-major axis
42,164.156 km
Eccentricity
0.00026
Inclination
2.4578°
RAAN
67.5071°
Arg. of periapsis
323.9742°
True anomaly
9.69363°
Mean anomaly
9.6886°
Eccentric anomaly
9.69111°
Mean motion
0.25068 °/min
Orbital period
1,436.07 mins
BSTAR
0
Loading maneuver chart data...
Computing Atmospheric mass density...
Loading historical data...
Loading historical data...
Loading historical data...
Loading historical data...
Loading historical data...
Loading historical data...
Loading historical data...
Other satellites on launch #40 in the year 2020 (2020-06-23 UTC)

Documentation

Showing up to 5 results
|